Total_Precipitation_Accumulation
0.02 0.00 0.01 0.00 0.00 0.00 0.00 0.00 0.00 0.00 0.01 0.00 0.00 0.00 0.00 0.07 0.24 0.19 0.18 0.11 0.11 0.07 0.03 0.04 0.06 0.06 0.08 0.18 0.43 0.65 1.02 1.03 0.77 0.67 0.70 0.93 1.09 1.25 1.37 1.22 1.43 1.88 1.91 2.04
0.04 0.03 0.01 0.01 0.00 0.00 0.00 0.01 0.00 0.00 0.00 0.00 0.01 0.00 0.00 0.03 0.18 0.20 0.16 0.08 0.04 0.02 0.00 0.01 0.04 0.10 0.29 0.44 0.45 0.34 0.23 0.33 0.41 0.51 0.66 0.84 0.96 1.22 1.31 1.47 1.40 1.69 1.80 2.11
0.05 0.02 0.00 0.00 0.00 0.01 0.00 0.00 0.00 0.00 0.00 0.01 0.03 0.03 0.01 0.00 0.07 0.07 0.03 0.05 0.03 0.01 0.02 0.04 0.08 0.13 0.11 0.06 0.07 0.14 0.25 0.45 0.42 0.44 0.61 0.83 1.20 1.47 1.39 1.42 1.24 1.29 1.61 1.97
0.06 0.00 0.01 0.04 0.04 0.01 0.00 0.00 0.01 0.01 0.03 0.08 0.06 0.08 0.03 0.01 0.03 0.02 0.02 0.04 0.04 0.03 0.04 0.03 0.01 0.00 0.01 0.04 0.14 0.22 0.27 0.32 0.27 0.40 0.63 0.65 0.71 0.78 0.66 0.63 0.74 0.80 1.24 1.90
0.12 0.01 0.07 0.08 0.03 0.02 0.01 0.01 0.05 0.05 0.06 0.05 0.04 0.11 0.03 0.05 0.12 0.08 0.04 0.03 0.06 0.04 0.02 0.02 0.02 0.02 0.01 0.07 0.12 0.16 0.30 0.36 0.29 0.40 0.75 0.86 0.84 0.64 0.56 0.56 0.70 0.82 1.05 1.47
0.02 0.02 0.05 0.04 0.01 0.04 0.08 0.05 0.11 0.10 0.13 0.15 0.01 0.07 0.14 0.61 0.58 0.38 0.22 0.12 0.17 0.08 0.06 0.07 0.10 0.10 0.09 0.16 0.17 0.17 0.19 0.32 0.34 0.35 0.61 1.04 1.47 1.73 1.80 1.48 1.07 0.85 1.03 1.31
0.08 0.09 0.01 0.01 0.01 0.04 0.11 0.25 0.48 0.52 0.33 0.12 0.06 0.10 0.28 0.52 0.54 0.54 0.45 0.25 0.18 0.12 0.13 0.16 0.17 0.16 0.17 0.20 0.27 0.27 0.19 0.20 0.24 0.28 0.29 0.45 0.76 1.11 1.60 2.26 3.04 2.92 2.38 2.10
0.18 0.21 0.10 0.00 0.01 0.05 0.11 0.31 0.43 0.60 0.28 0.14 0.09 0.25 0.70 0.61 0.85 0.57 0.81 0.47 0.33 0.27 0.21 0.20 0.21 0.20 0.19 0.26 0.41 0.39 0.37 0.36 0.23 0.24 0.34 0.49 0.59 0.75 1.09 1.24 1.58 2.41 3.18 2.86
0.29 0.22 0.07 0.02 0.06 0.18 0.20 0.19 0.15 0.70 0.43 0.44 0.31 0.81 0.70 0.53 0.81 1.55 0.90 0.51 0.64 0.61 0.36 0.24 0.25 0.32 0.41 0.38 0.47 0.64 0.61 0.70 0.57 0.48 0.45 0.58 0.80 0.81 0.73 0.93 1.57 1.67 1.60 1.79
0.31 0.62 0.20 0.06 0.08 0.09 0.16 0.27 0.48 0.94 1.10 0.84 0.41 0.62 0.98 0.97 1.29 1.07 1.25 1.28 0.68 0.77 0.66 0.43 0.37 0.42 0.42 0.56 0.55 0.71 0.90 1.22 1.00 0.88 0.75 0.78 0.87 0.92 1.09 1.32 1.72 2.16 2.48 2.34
0.40 0.91 0.54 0.23 0.20 0.20 0.28 0.42 0.47 0.69 0.76 1.52 1.45 1.40 1.54 1.65 1.83 1.80 1.15 1.19 1.34 0.85 1.14 0.89 0.60 0.55 0.79 1.17 0.82 0.95 1.41 2.16 1.80 1.40 1.42 1.58 1.34 1.71 1.90 1.76 2.00 1.91 1.96 2.29
0.22 1.02 0.81 0.32 0.16 0.21 0.30 0.31 0.49 1.69 1.25 1.33 2.46 2.47 2.03 1.65 1.31 0.95 0.95 0.88 0.88 1.01 1.11 1.37 1.06 0.84 0.88 0.63 0.71 0.78 1.10 1.44 2.71 2.77 2.99 2.74 3.00 3.41 2.70 2.75 3.00 2.39 2.15 1.95
0.38 1.05 0.84 0.74 0.76 0.40 0.30 0.31 0.50 0.84 1.53 2.11 2.61 2.07 1.86 1.20 0.85 0.70 0.67 0.73 0.74 0.72 0.91 1.15 1.05 1.10 1.24 0.79 0.86 1.03 1.72 2.15 2.13 2.50 3.07 3.10 3.35 3.02 2.91 2.48 2.17 1.77 1.74 1.76
0.55 0.73 0.77 1.13 1.09 0.96 0.72 0.49 0.57 1.27 2.38 1.77 1.69 1.38 0.92 0.97 0.99 0.85 0.63 0.58 0.68 0.77 0.71 0.70 0.93 1.06 1.55 1.80 1.50 1.56 1.78 2.05 1.82 2.10 2.14 2.52 2.37 1.74 1.74 2.15 1.77 1.65 1.60 1.79
0.54 0.99 0.94 0.71 0.81 0.73 1.20 1.17 1.18 1.09 1.00 1.63 1.33 0.68 0.56 0.50 1.01 1.16 0.84 0.78 0.67 0.86 0.67 0.62 0.65 0.61 0.96 1.37 1.60 1.89 1.77 1.67 1.91 2.14 1.81 1.52 1.54 1.20 1.09 1.15 1.14 1.05 0.94 1.14
0.53 0.86 0.96 1.55 0.90 0.44 0.97 1.10 0.93 0.63 0.73 0.81 0.58 0.61 0.48 0.38 0.53 0.97 0.87 0.82 0.60 0.64 0.91 0.76 0.65 0.62 0.74 0.94 1.33 1.46 1.35 1.46 1.45 1.45 1.48 1.54 1.17 1.17 1.19 1.07 1.07 0.78 0.73 0.75
0.70 0.84 1.02 1.19 0.58 0.51 0.96 0.87 0.51 0.33 0.27 0.36 0.43 0.44 0.33 0.36 0.48 0.67 0.77 0.82 0.81 0.97 1.11 1.17 1.42 1.28 1.10 1.11 1.22 1.51 1.63 1.49 1.76 1.58 1.33 0.99 1.06 1.14 1.22 1.22 1.29 1.36 1.30 1.12
0.65 0.74 1.46 1.31 0.84 1.58 1.02 0.40 0.32 0.33 0.33 0.28 0.31 0.32 0.36 0.54 0.67 0.72 0.91 1.56 1.68 1.47 1.41 1.34 1.23 1.07 1.05 1.02 0.98 1.40 1.95 1.99 1.77 1.51 1.46 1.09 0.96 1.13 1.32 1.35 1.33 1.58 1.61 1.43
0.46 0.91 1.84 1.57 1.05 0.67 0.27 0.16 0.25 0.34 0.33 0.36 0.56 0.73 0.71 0.68 0.93 1.25 1.45 1.94 1.83 1.25 0.88 0.87 1.01 1.05 0.81 1.02 0.99 1.24 1.26 1.46 1.66 1.60 1.56 1.55 1.19 1.17 1.35 1.57 1.57 1.41 1.42 1.55
0.73 1.01 1.99 1.75 1.68 0.77 0.22 0.15 0.08 0.15 0.47 0.43 0.78 1.24 1.15 1.21 1.37 1.20 1.05 1.60 1.39 0.85 0.50 0.38 0.36 0.47 0.79 0.84 0.75 0.84 0.81 0.76 1.17 1.83 1.72 1.85 1.91 1.87 1.98 1.88 1.75 1.86 1.84 1.78
0.65 1.32 2.05 1.77 2.45 0.86 0.16 0.19 0.24 0.87 1.10 0.72 0.69 0.86 1.26 1.53 1.69 1.42 1.19 1.24 0.98 0.78 0.32 0.11 0.06 0.04 0.08 0.32 0.53 0.47 0.48 0.68 0.74 1.08 1.71 1.75 1.93 1.80 1.69 1.83 1.92 2.05 2.34 2.49
0.58 1.17 1.26 1.50 2.26 1.24 0.36 0.54 0.98 1.07 0.79 0.56 0.45 0.29 0.39 0.61 0.66 0.68 0.89 0.88 0.61 0.37 0.09 0.01 0.00 0.01 0.02 0.04 0.08 0.21 0.33 0.38 0.46 0.56 0.73 1.16 1.27 1.19 1.31 1.33 1.42 1.52 1.52 1.68
0.88 0.78 1.00 1.07 0.89 0.70 0.63 0.91 0.78 0.74 0.81 0.46 0.31 0.27 0.42 0.41 0.47 0.65 0.53 0.25 0.10 0.05 0.03 0.01 0.01 0.02 0.04 0.06 0.07 0.12 0.13 0.12 0.14 0.20 0.30 0.57 0.96 1.05 0.92 1.13 1.23 1.12 1.11 1.09
0.96 0.88 1.19 1.38 1.12 1.09 1.15 0.67 0.42 0.55 0.56 0.40 0.29 0.28 0.30 0.32 0.29 0.26 0.18 0.14 0.11 0.08 0.03 0.03 0.04 0.04 0.06 0.08 0.22 0.16 0.12 0.12 0.13 0.15 0.16 0.19 0.47 0.93 0.83 0.85 0.90 0.94 0.98 1.03
0.96 1.40 1.73 2.28 1.59 1.27 1.07 0.97 0.78 0.48 0.22 0.24 0.39 0.35 0.26 0.14 0.12 0.14 0.14 0.27 0.30 0.24 0.12 0.04 0.05 0.06 0.08 0.15 0.23 0.52 0.41 0.18 0.14 0.14 0.18 0.21 0.18 0.34 0.68 0.74 0.84 0.84 1.04 1.20
0.29 0.83 1.79 2.21 1.42 1.42 1.11 0.54 0.41 0.39 0.36 0.24 0.12 0.11 0.07 0.04 0.03 0.07 0.14 0.28 0.29 0.28 0.18 0.12 0.11 0.13 0.13 0.10 0.10 0.11 0.44 0.31 0.19 0.23 0.24 0.42 0.43 0.44 0.60 0.84 1.12 1.30 1.10 1.03